Regional Weather Roundup
Issued by NWS

Home | Current Version | Previous Version | Graphics & Text | Print | Product List | Glossary On
Versions: 1 2 3 4 5 6 7 8 9 10 11 12 13 14 15 16 17 18 19 20 21 22 23 24 25 26 27 28 29 30 31 32 33 34 35 36 37 38 39 40 41 42 43 44 45 46 47 48 49 50
000
ASUS43 KMPX 220910
RWRMN
WEATHER ROUNDUP FOR MINNESOTA
NATIONAL WEATHER SERVICE TWIN CITIES/CHANHASSEN MN
300 AM CST WED NOV 22 2017


NOTE: "FAIR" INDICATES FEW OR NO CLOUDS BELOW 12,000 FEET WITH NO
SIGNIFICANT WEATHER AND/OR OBSTRUCTIONS TO VISIBILITY. N/A MEANS
CURRENT SKY AND/OR WEATHER CONDITIONS ARE NOT AVAILABLE.

MNZ060>063-068>070-221000-
   Twin Cities Metro

CITY           SKY/WX    TMP DP  RH WIND       PRES   REMARKS
TWIN CITIES    CLOUDY    16  11  80 NW5       30.36S WCI   9
ST PAUL        CLOUDY    16  10  77 NW5       30.38S WCI   9
CRYSTAL        CLOUDY    15   7  70 W3        30.35S
BLAINE         CLOUDY    16  10  79 CALM      30.34F
LAKEVILLE      CLOUDY    12  10  92 CALM      30.36S
EDEN PRAIRIE   CLOUDY    16   9  74 W3        30.35S
SOUTH ST PAUL  CLOUDY    17  10  74 CALM      30.37S
LAKE ELMO      FAIR      16  10  79 CALM      30.36F
$$
MNZ001>005-007-008-013>017-022>024-027-028-221000-
   Northwest Minnesota

CITY           SKY/WX    TMP DP  RH WIND       PRES   REMARKS
BEMIDJI        CLOUDY     8   6  91 SW5       30.24F WCI  -1
HALLOCK        CLOUDY     3   1  92 S7        30.22F WCI  -9
ROSEAU         CLOUDY    10   5  79 SW6       30.22F WCI   1
WARROAD        CLOUDY     9   5  85 SW6       30.22F WCI  -1
THIEF RVR FALL CLOUDY     8   5  87 S7        30.24F WCI  -3
CROOKSTON      CLOUDY     9   5  85 SW6       30.27F WCI  -1
FOSSTON        CLOUDY     5   1  85 S7        30.24F WCI  -7
DETROIT LAKES  CLOUDY    10   9  92 S3        30.27F
MOORHEAD       CLOUDY     9   3  78 CALM      30.30F
PARK RAPIDS    CLOUDY     7   3  84 SW5       30.25F WCI  -2
MAHNOMEN       FAIR       7   4  89 S6        30.25F WCI  -3
$$
MNZ006-009>011-018-025>026-221000-
   North Central Minnesota

CITY           SKY/WX    TMP DP  RH WIND       PRES   REMARKS
BAUDETTE       CLOUDY     6   4  91 SW5       30.21F WCI  -3
FLAG ISLAND    CLOUDY     9   5  85 SW7       30.19F WCI  -3
INTL FALLS       N/A      3  -1  83 SW5       30.22F WCI  -6
WASKISH        CLOUDY    10   9  92 S3        30.23F
BIG FORK       CLOUDY     3   0  85 CALM      30.23F
LONGVILLE      CLOUDY     9   7  92 CALM      30.26F
GRAND RAPIDS   CLOUDY    12   9  87 W3        30.27F
CRANE LAKE     FLURRIES  10   9  92 SW7       30.25S WCI   0
ORR            CLOUDY     5   1  85 CALM      30.20F
COOK           CLOUDY     7   3  85 CALM      30.22F
WALKER         FAIR       9   6  89 SW3       30.25F
$$
MNZ012-019>021-037-221000-
   Northeast Minnesota

CITY           SKY/WX    TMP DP  RH WIND       PRES   REMARKS
DULUTH         CLOUDY    12   9  87 NW9       30.24S WCI   0
ELY            FLURRIES  12   9  85 W7        30.21S WCI   2
HIBBING        CLEAR      7   5  91 SE3       30.22F
EVELETH        CLOUDY     9   5  85 W5        30.24F WCI   0
DULUTH HARBOR  CLEAR     19  12  73 W6        30.32S WCI  11
TWO HARBORS    CLOUDY    16   9  73 W3        30.23F
SILVER BAY     FLURRIES  14  10  85 CALM      30.22F
GRAND MARAIS     N/A     20  12  71 CALM      30.24S
G MARAIS ARPRT CLOUDY    12   7  79 CALM      30.16R
$$
MNZ029>031-032-039>041-046>048-054>057-064-221000-
   West Central Minnesota

CITY           SKY/WX    TMP DP  RH WIND       PRES   REMARKS
FERGUS FALLS   CLOUDY     9   7  92 SE3       30.34F
WHEATON        CLOUDY     5   1  85 SE6       30.34F WCI  -6
MORRIS         CLOUDY     9   7  92 CALM      30.32F
ALEXANDRIA     CLOUDY    12   9  87 CALM      30.30F
ELBOW LAKE     FAIR       8   6  90 CALM      30.31F FOG
WADENA         CLOUDY     7   3  85 CALM      30.27F
GLENWOOD       CLOUDY    12   9  85 CALM      30.32S
APPLETON       CLOUDY    12  10  92 CALM      30.35F
BENSON         CLOUDY     9   7  92 CALM      30.35F
ORTONVILLE     CLOUDY    10   7  85 MISG      30.33F
MADISON        CLOUDY    12   9  85 CALM      30.35F
WILLMAR        FAIR      12  10  92 SW3       30.35F
$$
MNZ033>034-036-042>043-049>051-058-059-221000-
   Central Minnesota

CITY           SKY/WX    TMP DP  RH WIND       PRES   REMARKS
ST CLOUD       CLOUDY    12   8  84 W7        30.35R WCI   1
SAUK CENTRE    FAIR      12   8  85 CALM      30.33S
PAYNESVILLE    CLOUDY    11  10  93 CALM      30.35S
AITKIN         CLOUDY    10   7  85 SW3       30.27F
PINE RIVER     CLOUDY     7   3  85 CALM      30.30F
BRAINERD       CLOUDY    14   9  80 CALM      30.29F
STAPLES        CLOUDY     9   7  92 CALM      30.29F
LONG PRAIRIE   FAIR      14  10  85 W7        30.32F WCI   4
LITTLE FALLS   CLEAR     10   5  79 CALM      30.33S
LITCHFIELD     CLOUDY    16  12  86 CALM      30.36R
BUFFALO        CLOUDY    15  10  80 CALM      30.38R
MAPLE LAKE     CLOUDY    15  12  85 W5        30.37R WCI   8
HUTCHINSON     CLOUDY    13  10  89 CALM      30.37F
$$
MNZ037-044-045-052-053-221000-
   East Central Minnesota

CITY           SKY/WX    TMP DP  RH WIND       PRES   REMARKS
PRINCETON      CLOUDY    10   7  85 CALM      30.34S
MORA           CLOUDY    14  10  85 CALM      30.34S
CAMBRIDGE      CLOUDY    16   7  67 CALM      30.34F
RUSH CITY      CLOUDY    12   9  85 CALM      30.34F
MOOSE LAKE     CLOUDY    16  10  79 W5        30.28F WCI   9
HINCKLEY       FAIR      18  12  79 CALM      30.32S
CLOQUET        CLOUDY    14   9  79 CALM      30.26F
MCGREGOR       CLOUDY    12  10  92 SW5       30.28F WCI   4
$$
MNZ071>073-080-081-089-090-097-098-221000-
   Southwest Minnesota

CITY           SKY/WX    TMP DP  RH WIND       PRES   REMARKS
MONTEVIDEO     CLOUDY    10   7  85 CALM      30.36F
GRANITE FALLS  CLOUDY     9   6  86 W3        30.38S
CANBY          CLOUDY    12   8  84 CALM      30.36F
MARSHALL       CLOUDY    11   6  81 W5        30.36S WCI   3
REDWOOD FALLS  CLOUDY    12   6  77 W6        30.37R WCI   3
OLIVIA         CLOUDY    12   9  85 CALM      30.35F
PIPESTONE      CLOUDY    10   5  79 CALM      30.31F
WINDOM         CLOUDY    12   0  57 CALM      30.35R
WORTHINGTON    CLOUDY    10   5  80 W3        30.35S
JACKSON        PTCLDY    12   9  85 CALM      30.34S
SLAYTON        CLOUDY    11   2  68 CALM      30.34R
$$
MNZ065>067-074>077-082>085-091>093-221000-
   South Central Minnesota

CITY           SKY/WX    TMP DP  RH WIND       PRES   REMARKS
MANKATO        CLOUDY    14   9  80 NW7       30.37R WCI   4
NEW ULM        CLOUDY    10   7  85 CALM      30.37R
ST JAMES       CLOUDY    12   9  85 W6        30.37F WCI   3
FAIRMONT       CLOUDY    13   8  81 NW7       30.37R WCI   3
GLENCOE        CLEAR     16  12  85 W3        30.36R
FARIBAULT      CLOUDY    14  10  85 W3        30.35R
OWATONNA       CLOUDY    12   9  85 CALM      30.34R
WASECA         CLOUDY    14  10  85 NW3       30.36S
ALBERT LEA     CLOUDY    16  10  79 CALM      30.33S
$$
MNZ078>079-086>088-094>096-221000-
   Southeast Minnesota

CITY           SKY/WX    TMP DP  RH WIND       PRES   REMARKS
ROCHESTER      CLOUDY    13  10  88 N8        30.32R WCI   2
RED WING       CLOUDY    14   9  79 CALM      30.36R
STANTON        CLOUDY    15  10  80 CALM      30.34F
DODGE CENTER   CLOUDY    14  10  85 N5        30.32S WCI   6
WINONA           N/A     19  12  73 NW9       30.36R WCI   9
AUSTIN         CLOUDY    16  10  79 NW6       30.34R WCI   7
PRESTON          N/A     15  10  83 NW5       30.33R WCI   7
$$
ABBREVIATIONS USED IN REMARKS
   TC - TEMPERATURES IN CELSIUS
  WCI - WIND CHILL INDEX
   HX - HEAT INDEX
  VSB - VISIBILITY
$$




USA.gov is the U.S. government's official web portal to all federal, state and local government web resources and services.